Weather History for Slidell, LA

Change the Weather History Date:

Wednesday, April 3, 2013

  Actual Average (KNEW) Record (KNEW)
Temperature  
Mean Temperature 60 °F 66 °F  
Max Temperature 66 °F 75 °F 86 °F (2001)
Min Temperature 54 °F 57 °F 37 °F (1971)
Degree Days  
Heating Degree Days 4 2  
Month to date heating degree days 6  
Since 1 July heating degree days 1251  
Cooling Degree Days 0 3  
Month to date cooling degree days 9  
Year to date cooling degree days 109  
Growing Degree Days 10 (Base 50)    
Moisture  
Dew Point 59 °F    
Average Humidity 95    
Maximum Humidity 100    
Minimum Humidity 84    
Precipitation  
Precipitation 1.76 in 0.15 in 2.39 in (1950)
Month to date precipitation 0.46  
Year to date precipitation 15.46  
Snow  
Snow 0.00 in - - ()
Month to date snowfall  
Since 1 July snowfall  
Snow Depth -    
Sea Level Pressure  
Sea Level Pressure 29.93 in    
Wind  
Wind Speed 7 mph (NNE)    
Max Wind Speed 20 mph    
Max Gust Speed 31 mph    
Visibility 7 miles    
Events Rain , Thunderstorm    
T = Trace of Precipitation, MM = Missing Value Source: NWS Daily Summary

Daily Weather History Graph

Daily Weather History Graph

Search for Another Location

Airport:

Trip Planner

Search our weather history database for the weather conditions in past years. The results will help you decide how hot, cold, wet, or windy it might be!

Date:

Astronomy

Apr. 03, 2013 Rise Set
Actual Time 6:45 AM CDT 7:19 PM CDT
Civil Twilight 6:21 AM CDT 7:43 PM CDT
Nautical Twilight 5:53 AM CDT 8:12 PM CDT
Astronomical Twilight 5:24 AM CDT 8:41 PM CDT
Moon 1:59 AM CDT (4/3) 12:57 PM CDT (4/3)
Length of Visible Light 13h 22m
Length of Day
12h 33m
Last Quarter, 44% of the Moon is Illuminated
Apr 3
Last Quarter
Apr 10
New
Apr 18
First Quarter
Apr 25
Full
May 2
Last Quarter

Hourly Weather History & Observations

Time (CDT) Temp. Dew Point Humidity Pressure Visibility Wind Dir Wind Speed Gust Speed Precip Events Conditions
12:12 AM 66.2 °F 62.6 °F 88% 29.96 in 10.0 mi East 3.5 mph - N/A Thunderstorm Scattered Clouds
12:27 AM 66.2 °F 62.6 °F 88% 29.94 in 10.0 mi ENE 5.8 mph - N/A   Mostly Cloudy
12:53 AM 66.9 °F 62.1 °F 84% 29.95 in 10.0 mi Variable 3.5 mph - N/A   Partly Cloudy
1:44 AM 66.2 °F 62.6 °F 88% 29.94 in 5.0 mi ESE 4.6 mph - 0.04 in Rain , Thunderstorm Rain
1:53 AM 66.0 °F 64.0 °F 93% 29.94 in 5.0 mi Calm Calm - 0.06 in Rain , Thunderstorm Light Thunderstorms and Rain
2:10 AM 66.2 °F 64.4 °F 94% 29.93 in 6.0 mi ESE 5.8 mph - 0.03 in Rain , Thunderstorm Light Rain
2:19 AM 66.2 °F 64.4 °F 94% 29.93 in 5.0 mi Calm Calm - 0.05 in Rain , Thunderstorm Rain
2:41 AM 66.2 °F 66.2 °F 100% 29.94 in 4.0 mi ESE 6.9 mph - 0.14 in Rain Rain
2:53 AM 66.0 °F 64.9 °F 96% 29.94 in 4.0 mi SE 8.1 mph - 0.20 in Rain Rain
3:05 AM 64.4 °F 64.4 °F 100% 29.94 in 4.0 mi SE 8.1 mph - 0.06 in Rain Rain
3:53 AM 64.0 °F 63.0 °F 96% 29.93 in 6.0 mi SE 3.5 mph - 0.20 in Rain Rain
4:53 AM 63.0 °F 63.0 °F 100% 29.94 in 5.0 mi NNE 4.6 mph - 0.23 in Rain Rain
5:03 AM 62.6 °F 62.6 °F 100% 29.95 in 5.0 mi Calm Calm - 0.03 in Rain Rain
5:53 AM 63.0 °F 63.0 °F 100% 29.96 in 5.0 mi NNE 5.8 mph - 0.23 in Rain Rain
6:32 AM 64.4 °F 62.6 °F 94% 29.96 in 8.0 mi Calm Calm - 0.06 in Rain Light Rain
6:53 AM 63.0 °F 63.0 °F 100% 29.92 in 8.0 mi NE 9.2 mph - 0.09 in Rain Light Rain
7:53 AM 62.1 °F 62.1 °F 100% 29.94 in 9.0 mi NE 8.1 mph - 0.04 in Rain Light Rain
8:38 AM 60.8 °F 60.8 °F 100% 29.98 in 3.0 mi NNE 6.9 mph - 0.15 in Rain , Thunderstorm Rain
8:45 AM 60.8 °F 60.8 °F 100% 29.99 in 2.5 mi NNE 5.8 mph - 0.18 in Rain , Thunderstorm Rain
8:53 AM 60.1 °F 60.1 °F 100% 30.01 in 2.0 mi NNE 8.1 mph - 0.24 in Rain , Thunderstorm Heavy Thunderstorms and Rain
8:58 AM 60.8 °F 59.0 °F 94% 30.02 in 2.0 mi North 8.1 mph - 0.03 in Rain , Thunderstorm Heavy Thunderstorms and Rain
9:07 AM 60.8 °F 60.8 °F 100% 30.03 in 2.0 mi North 4.6 mph - 0.08 in Rain Heavy Rain
9:20 AM 59.0 °F 59.0 °F 100% 30.03 in 1.5 mi North 8.1 mph - 0.18 in Rain Heavy Rain
9:32 AM 59.0 °F 59.0 °F 100% 30.04 in 1.8 mi NNW 4.6 mph - 0.26 in Rain Heavy Rain
9:53 AM 57.9 °F 57.9 °F 100% 29.95 in 2.5 mi East 13.8 mph 18.4 mph 0.38 in Rain Rain
10:01 AM 57.2 °F 57.2 °F 100% 29.93 in 4.0 mi East 16.1 mph 26.5 mph 0.03 in Rain Rain
10:28 AM 57.2 °F 57.2 °F 100% 29.84 in 7.0 mi East 19.6 mph 31.1 mph 0.07 in Rain Light Rain
10:53 AM 57.9 °F 57.0 °F 97% 29.82 in 10.0 mi East 10.4 mph 26.5 mph 0.08 in   Overcast
11:51 AM 60.8 °F 59.0 °F 94% 29.84 in 10.0 mi North 8.1 mph 19.6 mph N/A   Overcast
11:53 AM 61.0 °F 59.0 °F 93% 29.85 in 10.0 mi North 11.5 mph 19.6 mph N/A   Overcast
12:15 PM 60.8 °F 59.0 °F 94% 29.86 in 10.0 mi North 12.7 mph - N/A   Overcast
12:53 PM 60.1 °F 57.9 °F 93% 29.89 in 10.0 mi North 9.2 mph - N/A   Overcast
12:59 PM 60.8 °F 57.2 °F 88% 29.89 in 10.0 mi North 8.1 mph - N/A   Overcast
1:34 PM 60.8 °F 57.2 °F 88% 29.89 in 10.0 mi North 8.1 mph - N/A   Overcast
1:50 PM 60.8 °F 57.2 °F 88% 29.89 in 10.0 mi North 10.4 mph - N/A   Overcast
1:53 PM 60.1 °F 57.9 °F 93% 29.89 in 10.0 mi North 11.5 mph - N/A   Overcast
2:02 PM 60.8 °F 57.2 °F 88% 29.89 in 10.0 mi North 11.5 mph - N/A   Overcast
2:11 PM 60.8 °F 57.2 °F 88% 29.88 in 10.0 mi North 10.4 mph - N/A   Overcast
2:53 PM 62.1 °F 59.0 °F 90% 29.87 in 10.0 mi North 11.5 mph - N/A   Overcast
3:21 PM 60.8 °F 57.2 °F 88% 29.86 in 10.0 mi NNE 10.4 mph - N/A   Overcast
3:53 PM 61.0 °F 57.9 °F 90% 29.87 in 10.0 mi North 9.2 mph - N/A   Overcast
4:53 PM 59.0 °F 57.0 °F 93% 29.88 in 10.0 mi NNE 11.5 mph 20.7 mph N/A   Overcast
5:24 PM 57.2 °F 55.4 °F 94% 29.88 in 9.0 mi NNE 10.4 mph - N/A   Overcast
5:53 PM 57.9 °F 55.9 °F 93% 29.89 in 7.0 mi NNE 10.4 mph - N/A   Overcast
6:53 PM 57.9 °F 55.9 °F 93% 29.92 in 9.0 mi NE 6.9 mph - 0.00 in   Overcast
7:01 PM 57.2 °F 55.4 °F 94% 29.92 in 9.0 mi NNE 8.1 mph - N/A   Overcast
7:53 PM 57.0 °F 55.9 °F 96% 29.94 in 6.0 mi NNE 6.9 mph - 0.00 in   Overcast
8:14 PM 57.2 °F 55.4 °F 94% 29.94 in 6.0 mi NNE 8.1 mph - 0.00 in Rain Light Rain
8:53 PM 57.0 °F 55.9 °F 96% 29.94 in 10.0 mi NNE 8.1 mph - 0.00 in   Overcast
9:53 PM 57.0 °F 55.0 °F 93% 29.99 in 10.0 mi NNE 9.2 mph - N/A   Overcast
10:53 PM 55.0 °F 54.0 °F 96% 30.00 in 10.0 mi NNE 8.1 mph - 0.01 in   Overcast
11:53 PM 54.0 °F 54.0 °F 100% 29.98 in 9.0 mi NNE 5.8 mph - N/A   Overcast